Time,TemperatureF,DewpointF,PressureIn,WindDirection,WindDirectionDegrees,WindSpeedMPH,WindSpeedGustMPH,Humidity,HourlyPrecipIn,Conditions,Clouds,dailyrainin,SoftwareType,DateUTC
2013-04-12 07:27:00,61.0,58.0,28.47,North,0,0.0,0.0,90,0.00,,SCT100,0.00,VWS V14.01,2013-04-12 11:27:00,
2013-04-12 07:28:00,61.0,58.0,28.47,North,0,0.0,0.0,90,0.94,,SCT100,0.00,VWS V14.01,2013-04-12 11:28:00,
2013-04-12 07:33:00,61.2,58.2,28.47,North,0,0.0,0.0,90,0.00,,BKN110,0.00,VWS V14.01,2013-04-12 11:33:00,
2013-04-12 07:38:00,61.3,58.4,28.47,North,0,0.0,0.0,90,0.00,,BKN110,0.00,VWS V14.01,2013-04-12 11:38:00,
2013-04-12 07:43:00,61.3,58.4,28.47,North,0,0.0,0.0,90,0.00,,BKN110,0.00,VWS V14.01,2013-04-12 11:43:00,
2013-04-12 07:48:00,61.3,58.4,28.47,North,0,0.0,0.0,90,0.00,,BKN110,0.00,VWS V14.01,2013-04-12 11:48:00,
2013-04-12 07:53:00,61.3,58.4,28.47,North,0,0.0,0.0,90,0.00,,BKN110,0.00,VWS V14.01,2013-04-12 11:53:00,
2013-04-12 07:58:00,61.3,58.4,28.47,NE,54,0.0,0.0,90,0.00,,BKN110,0.00,VWS V14.01,2013-04-12 11:58:00,
2013-04-12 08:03:00,61.7,58.7,28.47,NE,54,0.0,0.0,90,0.00,,-RA,0.00,VWS V14.01,2013-04-12 12:03:00,
2013-04-12 08:08:00,61.7,58.7,28.47,NE,54,0.0,0.0,90,0.00,,-RA,0.00,VWS V14.01,2013-04-12 12:08:00,
2013-04-12 08:14:00,62.2,59.3,28.47,NE,54,0.0,0.0,90,0.00,,-RA,0.00,VWS V14.01,2013-04-12 12:14:00,
2013-04-12 08:19:00,62.4,59.8,28.47,NE,54,0.0,0.0,91,0.00,,-RA,0.00,VWS V14.01,2013-04-12 12:19:00,
2013-04-12 08:24:00,62.2,59.3,28.47,NE,54,0.0,0.0,90,0.00,,-RA,0.00,VWS V14.01,2013-04-12 12:24:00,
2013-04-12 08:29:00,62.4,59.5,28.47,NE,54,0.0,0.0,90,0.00,,-RA,0.00,VWS V14.01,2013-04-12 12:29:00,
2013-04-12 08:34:00,62.4,59.5,28.47,NE,54,0.0,0.0,90,0.00,,-RA,0.00,VWS V14.01,2013-04-12 12:34:00,
2013-04-12 08:39:00,63.0,60.0,28.47,NE,54,0.0,0.0,90,0.00,,-RA,0.00,VWS V14.01,2013-04-12 12:39:00,
2013-04-12 08:44:00,63.0,60.0,28.47,NE,54,0.0,0.0,90,0.00,,-RA,0.00,VWS V14.01,2013-04-12 12:44:00,
2013-04-12 08:49:00,63.0,60.0,28.47,NW,307,0.0,0.0,90,0.00,,-RA,0.00,VWS V14.01,2013-04-12 12:49:00,
2013-04-12 08:54:00,63.1,59.8,28.47,NW,307,0.0,0.0,89,0.00,,-RA,0.00,VWS V14.01,2013-04-12 12:54:00,
2013-04-12 08:59:00,63.0,59.4,28.47,NW,307,0.0,0.0,88,0.00,,-RA,0.00,VWS V14.01,2013-04-12 12:59:00,
2013-04-12 09:04:00,63.1,59.5,28.47,NW,307,0.0,0.0,88,0.00,,OVC095,0.00,VWS V14.01,2013-04-12 13:04:00,
2013-04-12 09:09:00,63.1,59.2,28.47,NW,307,0.0,0.0,87,0.00,,OVC095,0.00,VWS V14.01,2013-04-12 13:09:00,
2013-04-12 09:14:00,63.3,59.4,28.47,NW,307,0.0,0.0,87,0.00,,OVC095,0.00,VWS V14.01,2013-04-12 13:14:00,
2013-04-12 09:19:00,63.1,58.9,28.47,NW,307,0.0,0.0,86,0.00,,OVC095,0.00,VWS V14.01,2013-04-12 13:19:00,
2013-04-12 09:24:00,63.0,58.4,28.47,NW,307,0.0,0.0,85,0.00,,OVC095,0.00,VWS V14.01,2013-04-12 13:24:00,
2013-04-12 09:30:00,63.0,58.4,28.47,NW,307,0.0,0.0,85,0.00,,OVC095,0.00,VWS V14.01,2013-04-12 13:30:00,
2013-04-12 09:35:00,63.0,58.1,28.47,NW,307,0.0,0.0,84,0.00,,OVC095,0.00,VWS V14.01,2013-04-12 13:35:00,
2013-04-12 09:40:00,63.0,58.1,28.47,NW,307,0.0,0.0,84,0.00,,OVC095,0.00,VWS V14.01,2013-04-12 13:40:00,
2013-04-12 09:45:00,63.0,58.1,28.47,NW,307,0.0,0.0,84,0.00,,OVC095,0.00,VWS V14.01,2013-04-12 13:45:00,
2013-04-12 09:50:00,63.0,58.1,28.47,NW,307,0.0,0.0,84,0.00,,OVC095,0.00,VWS V14.01,2013-04-12 13:50:00,
2013-04-12 09:55:00,62.8,57.5,28.47,NW,307,0.0,0.0,83,0.00,,OVC095,0.00,VWS V14.01,2013-04-12 13:55:00,
2013-04-12 10:00:00,63.1,58.2,28.47,NW,307,0.0,0.0,84,0.00,,OVC095,0.00,VWS V14.01,2013-04-12 14:00:00,
2013-04-12 10:05:00,63.1,58.2,28.47,NW,307,0.0,0.0,84,0.00,,-RA,0.00,VWS V14.01,2013-04-12 14:05:00,
2013-04-12 10:10:00,63.1,58.2,28.47,NW,307,0.0,0.0,84,0.04,,-RA,0.04,VWS V14.01,2013-04-12 14:10:00,
2013-04-12 10:15:00,63.5,58.9,28.47,NW,307,0.0,0.0,85,0.04,,-RA,0.04,VWS V14.01,2013-04-12 14:15:00,
2013-04-12 10:20:00,64.0,59.8,28.47,ESE,116,0.0,0.0,86,0.04,,-RA,0.04,VWS V14.01,2013-04-12 14:20:00,
2013-04-12 10:25:00,64.4,60.1,28.47,ESE,116,0.0,0.0,86,0.04,,-RA,0.04,VWS V14.01,2013-04-12 14:25:00,
2013-04-12 10:30:00,64.9,61.0,28.47,ESE,116,0.0,0.0,87,0.04,,-RA,0.04,VWS V14.01,2013-04-12 14:30:00,
2013-04-12 10:35:00,65.5,61.2,28.47,ESE,116,0.0,0.0,86,0.04,,-RA,0.04,VWS V14.01,2013-04-12 14:35:00,
2013-04-12 10:40:00,65.7,60.4,28.47,East,88,0.0,0.0,83,0.04,,-RA,0.04,VWS V14.01,2013-04-12 14:40:00,
2013-04-12 10:45:00,65.7,59.3,28.47,East,88,0.0,0.0,80,0.04,,-RA,0.04,VWS V14.01,2013-04-12 14:45:00,
2013-04-12 10:50:00,67.8,62.1,28.47,East,88,0.0,0.0,82,0.04,,-RA,0.04,VWS V14.01,2013-04-12 14:50:00,
2013-04-12 10:55:00,68.4,57.8,28.47,East,88,0.0,0.0,69,0.04,,-RA,0.04,VWS V14.01,2013-04-12 14:55:00,
2013-04-12 11:00:00,69.8,55.8,28.47,East,88,0.0,0.0,61,0.04,,-RA,0.04,VWS V14.01,2013-04-12 15:00:00,
2013-04-12 11:05:00,70.5,52.1,28.47,East,88,0.0,0.0,52,0.04,,OVC095,0.04,VWS V14.01,2013-04-12 15:05:00,
2013-04-12 11:10:00,70.5,49.3,28.47,West,263,2.7,2.7,47,0.00,,OVC095,0.04,VWS V14.01,2013-04-12 15:10:00,
2013-04-12 11:15:00,70.3,48.0,28.47,West,263,2.7,2.7,45,0.00,,OVC095,0.04,VWS V14.01,2013-04-12 15:15:00,
2013-04-12 11:20:00,70.9,47.9,28.47,West,263,2.7,2.7,44,0.00,,OVC095,0.04,VWS V14.01,2013-04-12 15:20:00,
2013-04-12 11:25:00,71.2,47.6,28.47,West,263,2.7,2.7,43,0.00,,OVC095,0.04,VWS V14.01,2013-04-12 15:25:00,
2013-04-12 11:30:00,71.6,47.9,28.47,West,263,2.7,2.7,43,0.00,,OVC095,0.04,VWS V14.01,2013-04-12 15:30:00,
2013-04-12 11:35:00,72.0,47.0,28.47,West,263,2.7,2.7,41,0.00,,OVC080,0.04,VWS V14.01,2013-04-12 15:35:00,
2013-04-12 11:40:00,71.6,43.3,28.50,West,263,2.7,2.7,36,0.00,,OVC080,0.04,VWS V14.01,2013-04-12 15:40:00,
2013-04-12 11:45:00,71.8,46.8,28.50,West,263,2.7,2.7,41,0.00,,OVC080,0.04,VWS V14.01,2013-04-12 15:45:00,
2013-04-12 11:50:00,72.3,44.6,28.50,West,263,2.7,2.7,37,0.00,,OVC080,0.04,VWS V14.01,2013-04-12 15:50:00,
2013-04-12 11:55:00,72.1,43.0,28.50,West,263,2.7,2.7,35,0.00,,OVC080,0.04,VWS V14.01,2013-04-12 15:55:00,
2013-04-12 12:00:00,73.0,47.3,28.50,West,263,2.7,2.7,40,0.00,,OVC080,0.04,VWS V14.01,2013-04-12 16:00:00,
2013-04-12 12:05:00,73.4,47.0,28.50,West,263,2.7,2.7,39,0.00,,BKN075,0.04,VWS V14.01,2013-04-12 16:05:00,
2013-04-12 12:10:00,72.3,43.9,28.47,West,263,2.7,2.7,36,0.00,,BKN075,0.04,VWS V14.01,2013-04-12 16:10:00,
2013-04-12 12:15:00,72.9,45.1,28.47,West,263,2.7,2.7,37,0.00,,BKN075,0.04,VWS V14.01,2013-04-12 16:15:00,
2013-04-12 12:20:00,73.6,44.3,28.47,West,263,2.7,2.7,35,0.00,,BKN075,0.04,VWS V14.01,2013-04-12 16:20:00,
2013-04-12 12:25:00,72.7,43.5,28.47,West,263,2.7,2.7,35,0.00,,BKN075,0.04,VWS V14.01,2013-04-12 16:25:00,
2013-04-12 12:30:00,72.0,42.1,28.47,West,263,2.7,2.7,34,0.00,,BKN075,0.04,VWS V14.01,2013-04-12 16:30:00,
2013-04-12 12:35:00,70.9,42.6,28.47,West,263,2.7,2.7,36,0.00,,BKN075,0.04,VWS V14.01,2013-04-12 16:35:00,
2013-04-12 12:40:00,70.3,42.2,28.50,West,263,2.7,2.7,36,0.00,,BKN075,0.04,VWS V14.01,2013-04-12 16:40:00,
2013-04-12 12:45:00,72.0,45.0,28.50,West,263,2.7,2.7,38,0.00,,BKN075,0.04,VWS V14.01,2013-04-12 16:45:00,
2013-04-12 12:50:00,73.4,43.3,28.50,West,263,2.7,2.7,34,0.00,,BKN075,0.04,VWS V14.01,2013-04-12 16:50:00,
2013-04-12 12:55:00,74.1,44.8,28.47,West,263,2.7,2.7,35,0.00,,BKN075,0.04,VWS V14.01,2013-04-12 16:55:00,
2013-04-12 13:00:00,72.9,42.1,28.47,West,263,2.7,2.7,33,0.00,,BKN075,0.04,VWS V14.01,2013-04-12 17:00:00,
2013-04-12 13:05:00,72.9,42.9,28.47,West,263,2.7,2.7,34,0.00,,SCT075,0.04,VWS V14.01,2013-04-12 17:05:00,
2013-04-12 13:10:00,72.5,41.8,28.47,West,263,2.7,2.7,33,0.00,,SCT075,0.04,VWS V14.01,2013-04-12 17:10:00,
2013-04-12 13:15:00,73.0,41.5,28.47,West,263,2.7,2.7,32,0.00,,SCT075,0.04,VWS V14.01,2013-04-12 17:15:00,
2013-04-12 13:20:00,73.8,42.1,28.47,West,263,2.7,2.7,32,0.00,,SCT075,0.04,VWS V14.01,2013-04-12 17:20:00,
2013-04-12 13:25:00,73.9,41.4,28.47,West,263,2.7,2.7,31,0.00,,SCT075,0.04,VWS V14.01,2013-04-12 17:25:00,
2013-04-12 13:30:00,74.3,42.6,28.47,West,263,2.7,2.7,32,0.00,,SCT075,0.04,VWS V14.01,2013-04-12 17:30:00,
2013-04-12 13:35:00,74.1,40.7,28.47,West,263,2.7,2.7,30,0.00,,SCT075,0.04,VWS V14.01,2013-04-12 17:35:00,
2013-04-12 13:40:00,74.3,40.0,28.47,West,263,2.7,2.7,29,0.00,,SCT075,0.04,VWS V14.01,2013-04-12 17:40:00,
2013-04-12 13:46:00,73.2,39.1,28.47,West,263,2.7,2.7,29,0.00,,SCT075,0.04,VWS V14.01,2013-04-12 17:46:00,
2013-04-12 13:51:00,73.6,37.6,28.47,West,263,2.7,2.7,27,0.00,,SCT075,0.04,VWS V14.01,2013-04-12 17:51:00,
2013-04-12 13:56:00,73.2,40.8,28.47,West,263,2.7,2.7,31,0.00,,SCT075,0.04,VWS V14.01,2013-04-12 17:56:00,
2013-04-12 14:01:00,73.9,40.6,28.47,West,263,2.7,2.7,30,0.00,,SCT075,0.04,VWS V14.01,2013-04-12 18:01:00,
2013-04-12 14:06:00,75.4,43.5,28.47,West,263,2.7,2.7,32,0.00,,SCT075,0.04,VWS V14.01,2013-04-12 18:06:00,
2013-04-12 14:11:00,75.4,38.2,28.47,West,263,2.7,2.7,26,0.00,,SCT075,0.04,VWS V14.01,2013-04-12 18:11:00,
2013-04-12 14:17:00,75.2,36.0,28.47,West,263,2.7,2.7,24,0.00,,SCT075,0.04,VWS V14.01,2013-04-12 18:17:00,
2013-04-12 14:22:00,74.8,36.7,28.47,SW,226,8.3,8.3,25,0.00,,SCT075,0.04,VWS V14.01,2013-04-12 18:22:00,
2013-04-12 14:27:00,73.9,33.8,28.47,SW,226,8.3,8.3,23,0.00,,SCT075,0.04,VWS V14.01,2013-04-12 18:27:00,
2013-04-12 15:26:00,76.1,34.5,28.47,SW,229,10.1,10.1,22,0.00,,SCT055,0.04,VWS V14.01,2013-04-12 19:26:00,
2013-04-12 15:27:00,76.3,34.7,28.47,SW,229,10.1,10.1,22,0.00,,SCT055,0.04,VWS V14.01,2013-04-12 19:27:00,
2013-04-12 15:32:00,75.7,34.2,28.47,West,276,5.8,5.8,22,0.00,,SCT055,0.04,VWS V14.01,2013-04-12 19:32:00,
2013-04-12 15:37:00,76.6,35.0,28.47,West,276,5.8,5.8,22,0.00,,SCT055,0.04,VWS V14.01,2013-04-12 19:37:00,
2013-04-12 15:42:00,75.4,32.8,28.47,West,276,5.8,5.8,21,0.00,,SCT055,0.04,VWS V14.01,2013-04-12 19:42:00,
2013-04-12 15:47:00,75.7,33.1,28.47,West,276,5.8,5.8,21,0.00,,SCT055,0.04,VWS V14.01,2013-04-12 19:47:00,
2013-04-12 15:52:00,75.4,32.8,28.47,North,357,9.6,9.6,21,0.00,,SCT055,0.04,VWS V14.01,2013-04-12 19:52:00,
2013-04-12 15:57:00,75.4,32.8,28.47,North,357,9.6,9.6,21,0.00,,SCT055,0.04,VWS V14.01,2013-04-12 19:57:00,
2013-04-12 16:02:00,75.0,32.5,28.47,SW,235,6.7,6.7,21,0.00,,SCT060,0.04,VWS V14.01,2013-04-12 20:02:00,
2013-04-12 16:07:00,75.2,31.4,28.44,WSW,253,7.6,7.6,20,0.00,,SCT060,0.04,VWS V14.01,2013-04-12 20:07:00,
2013-04-12 16:13:00,75.4,29.0,28.44,WSW,253,7.6,7.6,18,0.00,,SCT060,0.04,VWS V14.01,2013-04-12 20:13:00,
2013-04-12 16:18:00,74.3,28.1,28.44,WSW,253,7.6,7.6,18,0.00,,SCT060,0.04,VWS V14.01,2013-04-12 20:18:00,
2013-04-12 16:23:00,74.1,27.9,28.47,SW,229,8.7,8.7,18,0.00,,SCT060,0.04,VWS V14.01,2013-04-12 20:23:00,
2013-04-12 16:28:00,73.9,25.0,28.47,West,269,10.5,10.5,16,0.00,,SCT060,0.04,VWS V14.01,2013-04-12 20:28:00,
2013-04-12 16:33:00,74.1,25.1,28.47,SW,220,7.6,7.6,16,0.00,,SCT060,0.04,VWS V14.01,2013-04-12 20:33:00,
2013-04-12 16:38:00,73.8,24.8,28.44,SSW,205,6.3,6.3,16,0.00,,SCT060,0.04,VWS V14.01,2013-04-12 20:38:00,
2013-04-12 16:43:00,73.6,24.7,28.44,WSW,244,11.9,11.9,16,0.00,,SCT060,0.04,VWS V14.01,2013-04-12 20:43:00,
2013-04-12 16:48:00,73.8,24.8,28.44,SW,222,10.5,10.5,16,0.00,,SCT060,0.04,VWS V14.01,2013-04-12 20:48:00,
2013-04-12 16:53:00,73.4,24.5,28.47,SW,222,10.5,10.5,16,0.00,,SCT060,0.04,VWS V14.01,2013-04-12 20:53:00,
2013-04-12 16:58:00,73.8,24.8,28.47,SW,222,10.5,10.5,16,0.00,,SCT060,0.04,VWS V14.01,2013-04-12 20:58:00,
2013-04-12 17:03:00,73.9,25.0,28.47,SW,222,10.5,10.5,16,0.00,,FEW060,0.04,VWS V14.01,2013-04-12 21:03:00,
2013-04-12 17:08:00,74.5,28.2,28.47,SW,222,10.5,10.5,18,0.00,,FEW060,0.04,VWS V14.01,2013-04-12 21:08:00,
2013-04-12 17:13:00,73.9,27.8,28.47,SW,222,10.5,10.5,18,0.00,,FEW060,0.04,VWS V14.01,2013-04-12 21:13:00,
2013-04-12 17:18:00,72.9,28.2,28.47,SW,222,10.5,10.5,19,0.00,,FEW060,0.04,VWS V14.01,2013-04-12 21:18:00,
2013-04-12 17:23:00,72.7,28.1,28.47,West,278,8.7,8.7,19,0.00,,FEW060,0.04,VWS V14.01,2013-04-12 21:23:00,
2013-04-12 17:28:00,73.0,30.8,28.47,West,278,8.7,8.7,21,0.00,,FEW060,0.04,VWS V14.01,2013-04-12 21:28:00,
2013-04-12 17:33:00,73.0,30.8,28.47,West,278,8.7,8.7,21,0.00,,FEW060,0.04,VWS V14.01,2013-04-12 21:33:00,
2013-04-12 17:38:00,72.7,30.5,28.47,West,278,8.7,8.7,21,0.00,,FEW060,0.04,VWS V14.01,2013-04-12 21:38:00,
2013-04-12 17:43:00,72.3,30.2,28.47,West,278,8.7,8.7,21,0.00,,FEW060,0.04,VWS V14.01,2013-04-12 21:43:00,
2013-04-12 17:48:00,71.8,29.8,28.47,West,278,8.7,8.7,21,0.00,,FEW060,0.04,VWS V14.01,2013-04-12 21:48:00,
2013-04-12 17:53:00,72.0,29.9,28.47,West,278,8.7,8.7,21,0.00,,FEW060,0.04,VWS V14.01,2013-04-12 21:53:00,
2013-04-12 17:58:00,72.1,31.2,28.47,West,278,8.7,8.7,22,0.00,,FEW060,0.04,VWS V14.01,2013-04-12 21:58:00,
2013-04-12 18:03:00,71.6,29.6,28.47,WSW,257,5.4,5.4,21,0.00,,FEW060,0.04,VWS V14.01,2013-04-12 22:03:00,
2013-04-12 18:08:00,71.2,30.5,28.47,WSW,257,5.4,5.4,22,0.00,,FEW060,0.04,VWS V14.01,2013-04-12 22:08:00,
2013-04-12 18:13:00,71.2,30.5,28.47,WSW,257,5.4,5.4,22,0.00,,FEW060,0.04,VWS V14.01,2013-04-12 22:13:00,
2013-04-12 18:18:00,71.1,30.3,28.47,WSW,257,5.4,5.4,22,0.00,,FEW060,0.04,VWS V14.01,2013-04-12 22:18:00,
2013-04-12 18:23:00,71.2,30.5,28.47,WSW,257,5.4,5.4,22,0.00,,FEW060,0.04,VWS V14.01,2013-04-12 22:23:00,
2013-04-12 18:28:00,70.9,30.2,28.47,WSW,257,5.4,5.4,22,0.00,,FEW060,0.04,VWS V14.01,2013-04-12 22:28:00,
2013-04-12 18:33:00,70.5,29.9,28.47,WSW,257,5.4,5.4,22,0.00,,FEW060,0.04,VWS V14.01,2013-04-12 22:33:00,
2013-04-12 18:38:00,70.5,29.9,28.47,WSW,257,5.4,5.4,22,0.00,,FEW060,0.04,VWS V14.01,2013-04-12 22:38:00,
2013-04-12 18:43:00,70.3,29.7,28.47,WSW,257,5.4,5.4,22,0.00,,FEW060,0.04,VWS V14.01,2013-04-12 22:43:00,
2013-04-12 18:48:00,70.3,29.7,28.47,WSW,257,5.4,5.4,22,0.00,,FEW060,0.04,VWS V14.01,2013-04-12 22:48:00,
2013-04-12 18:53:00,70.2,29.6,28.50,WSW,257,5.4,5.4,22,0.00,,FEW060,0.04,VWS V14.01,2013-04-12 22:53:00,
2013-04-12 18:58:00,69.8,29.3,28.50,WSW,257,5.4,5.4,22,0.00,,FEW060,0.04,VWS V14.01,2013-04-12 22:58:00,
2013-04-12 19:03:00,69.6,29.1,28.50,WSW,257,5.4,5.4,22,0.00,,FEW060,0.04,VWS V14.01,2013-04-12 23:03:00,
2013-04-12 19:08:00,69.4,29.0,28.50,WSW,257,5.4,5.4,22,0.00,,FEW060,0.04,VWS V14.01,2013-04-12 23:08:00,
2013-04-12 19:13:00,69.3,28.8,28.50,WSW,257,5.4,5.4,22,0.00,,FEW060,0.04,VWS V14.01,2013-04-12 23:13:00,
2013-04-12 19:18:00,68.9,28.5,28.50,WSW,257,5.4,5.4,22,0.00,,FEW060,0.04,VWS V14.01,2013-04-12 23:18:00,
2013-04-12 19:23:00,68.9,28.5,28.50,WSW,257,5.4,5.4,22,0.00,,FEW060,0.04,VWS V14.01,2013-04-12 23:23:00,
2013-04-12 19:28:00,68.5,28.2,28.50,WSW,257,5.4,5.4,22,0.00,,FEW060,0.04,VWS V14.01,2013-04-12 23:28:00,
2013-04-12 19:34:00,68.2,25.6,28.50,WSW,257,5.4,5.4,20,0.00,,FEW060,0.04,VWS V14.01,2013-04-12 23:34:00,
2013-04-12 19:39:00,67.6,27.5,28.50,WSW,257,5.4,5.4,22,0.00,,FEW060,0.04,VWS V14.01,2013-04-12 23:39:00,
2013-04-12 19:44:00,67.8,25.3,28.50,WSW,257,5.4,5.4,20,0.00,,FEW060,0.04,VWS V14.01,2013-04-12 23:44:00,
2013-04-12 19:49:00,67.5,25.0,28.50,WSW,257,5.4,5.4,20,0.00,,FEW060,0.04,VWS V14.01,2013-04-12 23:49:00,
2013-04-12 19:54:00,67.3,27.2,28.50,WSW,257,5.4,5.4,22,0.00,,FEW060,0.04,VWS V14.01,2013-04-12 23:54:00,
2013-04-12 19:59:00,67.1,24.7,28.50,WSW,257,5.4,5.4,20,0.00,,FEW060,0.04,VWS V14.01,2013-04-12 23:59:00,
2013-04-12 20:04:00,66.7,26.7,28.50,WSW,257,5.4,5.4,22,0.00,,FEW060,0.04,VWS V14.01,2013-04-13 00:04:00,
2013-04-12 20:09:00,66.6,26.6,28.50,WSW,257,5.4,5.4,22,0.00,,FEW060,0.04,VWS V14.01,2013-04-13 00:09:00,
2013-04-12 20:14:00,66.4,26.4,28.50,WSW,257,5.4,5.4,22,0.00,,FEW060,0.04,VWS V14.01,2013-04-13 00:14:00,
2013-04-12 20:19:00,66.4,26.4,28.50,WSW,257,5.4,5.4,22,0.00,,FEW060,0.04,VWS V14.01,2013-04-13 00:19:00,
2013-04-12 20:24:00,66.2,26.3,28.50,WSW,257,5.4,5.4,22,0.00,,FEW060,0.04,VWS V14.01,2013-04-13 00:24:00,
2013-04-12 20:29:00,66.0,23.8,28.50,WSW,257,5.4,5.4,20,0.00,,FEW060,0.04,VWS V14.01,2013-04-13 00:29:00,
2013-04-12 20:34:00,66.2,24.0,28.50,WSW,257,5.4,5.4,20,0.00,,FEW060,0.04,VWS V14.01,2013-04-13 00:34:00,
2013-04-12 20:39:00,66.0,27.2,28.53,WSW,257,5.4,5.4,23,0.00,,FEW060,0.04,VWS V14.01,2013-04-13 00:39:00,
2013-04-12 20:44:00,65.5,26.7,28.53,WSW,257,5.4,5.4,23,0.00,,FEW060,0.04,VWS V14.01,2013-04-13 00:44:00,
2013-04-12 20:49:00,65.3,26.6,28.53,WSW,257,5.4,5.4,23,0.00,,FEW060,0.04,VWS V14.01,2013-04-13 00:49:00,
2013-04-12 20:54:00,65.3,26.6,28.53,WSW,257,5.4,5.4,23,0.00,,FEW060,0.04,VWS V14.01,2013-04-13 00:54:00,
2013-04-12 20:59:00,65.5,26.7,28.53,WSW,257,5.4,5.4,23,0.00,,FEW060,0.04,VWS V14.01,2013-04-13 00:59:00,
2013-04-12 21:04:00,65.3,26.6,28.53,WSW,257,5.4,5.4,23,0.00,,CLR,0.04,VWS V14.01,2013-04-13 01:04:00,
2013-04-12 21:09:00,64.9,26.3,28.53,WSW,257,5.4,5.4,23,0.00,,CLR,0.04,VWS V14.01,2013-04-13 01:09:00,
2013-04-12 21:14:00,64.4,25.8,28.53,WSW,257,5.4,5.4,23,0.00,,CLR,0.04,VWS V14.01,2013-04-13 01:14:00,
2013-04-12 21:19:00,64.2,26.7,28.53,WSW,257,5.4,5.4,24,0.00,,CLR,0.04,VWS V14.01,2013-04-13 01:19:00,
2013-04-12 21:24:00,63.9,26.4,28.56,WSW,257,5.4,5.4,24,0.00,,CLR,0.04,VWS V14.01,2013-04-13 01:24:00,
2013-04-12 21:29:00,63.7,26.2,28.56,WSW,257,5.4,5.4,24,0.00,,CLR,0.04,VWS V14.01,2013-04-13 01:29:00,
2013-04-12 21:34:00,63.7,26.2,28.56,WSW,257,5.4,5.4,24,0.00,,CLR,0.04,VWS V14.01,2013-04-13 01:34:00,
2013-04-12 21:39:00,63.3,25.9,28.56,WSW,257,5.4,5.4,24,0.00,,CLR,0.04,VWS V14.01,2013-04-13 01:39:00,
2013-04-12 21:44:00,63.3,25.9,28.56,WSW,257,5.4,5.4,24,0.00,,CLR,0.04,VWS V14.01,2013-04-13 01:44:00,
2013-04-12 21:49:00,63.1,24.8,28.56,WSW,257,5.4,5.4,23,0.00,,CLR,0.04,VWS V14.01,2013-04-13 01:49:00,
2013-04-12 21:54:00,63.0,24.6,28.56,WSW,257,5.4,5.4,23,0.00,,CLR,0.04,VWS V14.01,2013-04-13 01:54:00,
2013-04-12 21:59:00,62.6,24.3,28.56,WSW,257,5.4,5.4,23,0.00,,CLR,0.04,VWS V14.01,2013-04-13 01:59:00,
2013-04-12 22:04:00,62.4,25.2,28.56,WSW,257,5.4,5.4,24,0.00,,CLR,0.04,VWS V14.01,2013-04-13 02:04:00,
2013-04-12 22:09:00,62.1,24.9,28.56,West,259,4.0,5.4,24,0.00,,CLR,0.04,VWS V14.01,2013-04-13 02:09:00,
2013-04-12 22:14:00,61.7,24.6,28.56,WNW,285,3.6,4.0,24,0.00,,CLR,0.04,VWS V14.01,2013-04-13 02:14:00,
2013-04-12 22:19:00,61.7,24.6,28.56,West,267,5.8,8.1,24,0.00,,CLR,0.04,VWS V14.01,2013-04-13 02:19:00,
2013-04-12 22:24:00,61.9,21.5,28.59,WSW,257,5.8,5.8,21,0.00,,CLR,0.04,VWS V14.01,2013-04-13 02:24:00,
2013-04-12 22:29:00,61.7,24.6,28.59,West,272,4.9,6.3,24,0.00,,CLR,0.04,VWS V14.01,2013-04-13 02:29:00,
2013-04-12 22:34:00,61.5,24.4,28.59,WSW,248,4.0,4.0,24,0.00,,CLR,0.04,VWS V14.01,2013-04-13 02:34:00,
2013-04-12 22:39:00,61.3,21.1,28.59,West,271,6.3,8.1,21,0.00,,CLR,0.04,VWS V14.01,2013-04-13 02:39:00,
2013-04-12 22:44:00,61.3,21.1,28.59,WSW,253,3.1,3.1,21,0.00,,CLR,0.04,VWS V14.01,2013-04-13 02:44:00,
2013-04-12 22:49:00,61.3,21.1,28.59,WNW,288,5.8,6.7,21,0.00,,CLR,0.04,VWS V14.01,2013-04-13 02:49:00,
2013-04-12 22:54:00,61.2,20.9,28.59,WNW,296,5.4,5.4,21,0.00,,CLR,0.04,VWS V14.01,2013-04-13 02:54:00,